Regional Weather Roundup
Issued by NWS

Home | Current Version | Previous Version | Graphics & Text | Print | Product List | Glossary On
Versions: 1 2 3 4 5 6 7 8 9 10 11 12 13 14 15 16 17 18 19 20 21 22 23 24 25 26 27 28 29 30 31 32 33 34 35 36 37 38 39 40 41 42 43 44 45 46 47 48 49 50
000
ASUS43 KLMK 020010
RWRKY
KENTUCKY REGIONAL WEATHER ROUNDUP
NATIONAL WEATHER SERVICE LOUISVILLE KY
800 PM EDT SUN MAY 01 2016

NOTE "FAIR" INDICATES FEW OR NO CLOUDS BELOW 12,000 FEET
WITH NO SIGNIFICANT WEATHER AND/OR OBSTRUCTIONS TO VISIBILITY.

KYZ001>023-026-027-061>063-070>075-020100-
WESTERN AND SOUTH CENTRAL KENTUCKY

CITY           SKY/WX    TMP DP  RH WIND       PRES   REMARKS
PADUCAH        PTCLDY    77  64  64 SW8       29.89R
HENDERSON      CLEAR     75  63  64 S14       29.86S
OWENSBORO      PTCLDY    73  63  71 W8        29.88S
HOPKINSVILLE   CLEAR     74  64  70 S5        29.91S
BOWLING GREEN  CLEAR     77  63  61 SW8       29.91R
GLASGOW        NOT AVBL
$$

KYZ024-025-028>034-038-045-046-053-020100-
NORTH CENTRAL KENTUCKY

CITY           SKY/WX    TMP DP  RH WIND       PRES   REMARKS
LOUISVILLE/SDF PTCLDY    70  65  84 CALM      29.89F
LOUISVILLE/LOU CLEAR     70  63  78 CALM      29.90S
FORT KNOX      CLEAR     71  64  81 W2        29.88S
$$

KYZ035>037-039>044-047>052-055>060-089>105-020100-
NORTHEAST KENTUCKY

CITY           SKY/WX    TMP DP  RH WIND       PRES   REMARKS
LEXINGTON      PTCLDY    67  61  81 CALM      29.93R
COVINGTON      LGT RAIN  65  61  87 S10       29.89F
FRANKFORT      CLEAR     68  60  75 SE5       29.91R
$$

KYZ054-064>069-076>088-106>120-020100-
SOUTHEAST KENTUCKY

CITY           SKY/WX    TMP DP  RH WIND       PRES   REMARKS
JACKSON        MOCLDY    66  59  78 CALM      29.96R
LONDON         CLEAR     77  60  55 W8        29.93R
SOMERSET       NOT AVBL
MIDDLESBORO    CLOUDY    76  64  66 S10G18    29.94S
MONTICELLO     MOCLDY    76  64  66 W17       29.96R
$$




USA.gov is the U.S. government's official web portal to all federal, state and local government web resources and services.